Location: Unspecified
(49.9820°N, 20.4363°E)
Time: 21:22:20
(UTC+02:00)

Altair - Visible Passes

Search period start: 15 May 2026 00:00
Search period end: 25 May 2026 00:00
Orbit: 1501 x 1682 km, 47.2° (Epoch: 14 May)

Date Brightness Start Highest point End Pass type
(mag) Time Alt. Az. Time Alt. Az. Time Alt. Az.
17 May 8.8 04:05:26 10° SSW 04:13:35 31° SE 04:21:56 10° E visible
18 May 8.8 03:40:34 10° S 03:48:28 29° SE 03:56:33 10° E visible
19 May 8.9 03:15:45 10° S 03:23:22 26° SE 03:31:08 10° E visible
20 May 8.9 02:50:59 10° S 02:58:16 24° SE 03:05:42 10° E visible
21 May 8.9 02:26:55 12° S 02:33:10 22° SE 02:40:13 10° E visible
22 May 8.9 02:02:50 13° SSE 02:08:05 20° SE 02:14:41 10° E visible
22 May 8.1 04:01:44 10° SW 04:11:04 51° SSE 04:20:41 10° ENE visible
23 May 8.9 01:38:42 14° SSE 01:43:01 18° SE 01:49:07 10° E visible
23 May 8.1 03:36:42 10° SW 03:45:52 49° SSE 03:55:23 10° ENE visible
24 May 8.9 01:14:31 14° SSE 01:17:57 17° SE 01:23:28 10° E visible
24 May 8.1 03:12:31 13° SSW 03:20:41 46° SSE 03:30:04 10° ENE visible
